Location: ??? ???
(33.4974°N, 35.4618°E)
Time: 17:17:25
(UTC+00:00)

CZ-2C R/B - Pass Details

Date: 29 October 2020
Orbit: 703 x 909 km, 98.1° (Epoch: 30 November)

Event Time Altitude Azimuth Distance (km) Brightness Sun altitude
Rises 15:50:34 0° 147° (SSE) 3,523 6.2 -13.4°
Reaches altitude 10° 15:53:07 10° 140° (SE) 2,582 5.4 -14.0°
Maximum altitude 15:58:30 41° 72° (ENE) 1,272 3.7 -15.1°
Drops below altitude 10° 16:03:46 10° 4° (N) 2,533 5.6 -16.2°
Sets 16:06:15 0° 357° (N) 3,449 6.4 -16.7°
